Time,TemperatureF,DewpointF,PressureIn,WindDirection,WindDirectionDegrees,WindSpeedMPH,WindSpeedGustMPH,Humidity,HourlyPrecipIn,Conditions,Clouds,dailyrainin,SoftwareType,DateUTC
2013-09-09 00:00:00,63.3,47.3,29.74,West,276,0.0,0.0,56,0.00,,CLR,0.00,VWS V14.01,2013-09-09 07:00:00,
2013-09-09 00:06:00,63.1,46.7,29.74,West,276,0.0,0.0,55,0.00,,CLR,0.00,VWS V14.01,2013-09-09 07:06:00,
2013-09-09 00:11:00,63.1,46.7,29.74,West,276,0.0,0.0,55,0.00,,CLR,0.00,VWS V14.01,2013-09-09 07:11:00,
2013-09-09 00:17:00,63.1,46.7,29.74,West,276,0.0,0.0,55,0.00,,CLR,0.00,VWS V14.01,2013-09-09 07:17:00,
2013-09-09 00:23:00,62.9,46.5,29.74,North,3,0.0,0.0,55,0.00,,CLR,0.00,VWS V14.01,2013-09-09 07:23:00,
2013-09-09 00:28:00,62.9,46.5,29.74,North,357,2.7,3.1,55,0.00,,CLR,0.00,VWS V14.01,2013-09-09 07:28:00,
2013-09-09 00:34:00,62.9,47.0,29.74,NNW,335,0.0,0.0,56,0.00,,CLR,0.00,VWS V14.01,2013-09-09 07:34:00,
2013-09-09 00:40:00,62.8,46.8,29.74,NNW,332,0.0,0.0,56,0.00,,CLR,0.00,VWS V14.01,2013-09-09 07:40:00,
2013-09-09 00:45:00,62.8,47.3,29.74,NNW,332,0.0,0.0,57,0.00,,CLR,0.00,VWS V14.01,2013-09-09 07:45:00,
2013-09-09 00:50:00,62.8,47.3,29.74,NNW,332,0.0,0.0,57,0.00,,CLR,0.00,VWS V14.01,2013-09-09 07:50:00,
2013-09-09 00:55:00,62.8,47.3,29.74,NNW,344,0.0,0.0,57,0.00,,CLR,0.00,VWS V14.01,2013-09-09 07:55:00,
2013-09-09 01:00:00,62.6,47.2,29.74,NNW,346,0.0,0.0,57,0.00,,CLR,0.00,VWS V14.01,2013-09-09 08:00:00,
2013-09-09 01:05:00,62.8,47.8,29.74,West,260,0.0,0.0,58,0.00,,CLR,0.00,VWS V14.01,2013-09-09 08:05:00,
2013-09-09 01:11:00,62.6,48.5,29.74,West,259,0.0,0.0,60,0.00,,CLR,0.00,VWS V14.01,2013-09-09 08:11:00,
2013-09-09 01:16:00,62.6,48.1,29.74,West,259,0.0,0.0,59,0.00,,CLR,0.00,VWS V14.01,2013-09-09 08:16:00,
2013-09-09 01:22:00,62.6,48.1,29.74,West,259,0.0,0.0,59,0.00,,CLR,0.00,VWS V14.01,2013-09-09 08:22:00,
2013-09-09 01:27:00,62.6,49.0,29.74,West,259,0.0,0.0,61,0.00,,CLR,0.00,VWS V14.01,2013-09-09 08:27:00,
2013-09-09 01:33:00,62.4,48.3,29.74,West,259,0.0,0.0,60,0.00,,CLR,0.00,VWS V14.01,2013-09-09 08:33:00,
2013-09-09 01:39:00,62.6,49.4,29.74,West,259,3.1,3.1,62,0.00,,CLR,0.00,VWS V14.01,2013-09-09 08:39:00,
2013-09-09 01:44:00,62.6,49.4,29.74,WSW,254,3.1,4.0,62,0.00,,CLR,0.00,VWS V14.01,2013-09-09 08:44:00,
2013-09-09 01:50:00,62.6,49.4,29.74,West,274,0.0,0.0,62,0.00,,CLR,0.00,VWS V14.01,2013-09-09 08:50:00,
2013-09-09 01:55:00,62.6,49.8,29.74,West,260,4.0,4.0,63,0.00,,CLR,0.00,VWS V14.01,2013-09-09 08:55:00,
2013-09-09 02:01:00,62.6,49.8,29.74,WNW,301,3.6,4.0,63,0.00,,CLR,0.00,VWS V14.01,2013-09-09 09:01:00,
2013-09-09 02:07:00,62.4,49.7,29.74,West,264,4.0,4.0,63,0.00,,CLR,0.00,VWS V14.01,2013-09-09 09:07:00,
2013-09-09 02:12:00,62.4,50.1,29.74,WSW,249,4.9,4.9,64,0.00,,CLR,0.00,VWS V14.01,2013-09-09 09:12:00,
2013-09-09 02:17:00,62.4,50.5,29.74,NW,318,2.7,2.7,65,0.00,,CLR,0.00,VWS V14.01,2013-09-09 09:17:00,
2013-09-09 02:22:00,62.4,50.1,29.74,NNW,344,0.0,2.7,64,0.00,,CLR,0.00,VWS V14.01,2013-09-09 09:22:00,
2013-09-09 02:27:00,62.2,50.3,29.74,NE,35,0.0,0.0,65,0.00,,CLR,0.00,VWS V14.01,2013-09-09 09:27:00,
2013-09-09 02:33:00,62.2,50.3,29.74,NE,47,0.0,0.0,65,0.00,,CLR,0.00,VWS V14.01,2013-09-09 09:33:00,
2013-09-09 02:39:00,62.0,50.2,29.74,NNE,30,2.2,2.7,65,0.00,,CLR,0.00,VWS V14.01,2013-09-09 09:39:00,
2013-09-09 02:44:00,62.0,50.6,29.74,WSW,254,0.0,0.0,66,0.00,,CLR,0.00,VWS V14.01,2013-09-09 09:44:00,
2013-09-09 02:49:00,61.9,50.4,29.74,NW,322,3.1,3.6,66,0.00,,CLR,0.00,VWS V14.01,2013-09-09 09:49:00,
2013-09-09 02:54:00,61.9,50.4,29.74,North,353,3.6,4.0,66,0.00,,CLR,0.00,VWS V14.01,2013-09-09 09:54:00,
2013-09-09 02:59:00,61.9,50.8,29.74,West,259,3.1,3.1,67,0.00,,CLR,0.00,VWS V14.01,2013-09-09 09:59:00,
2013-09-09 03:04:00,61.9,51.6,29.74,NW,321,2.7,3.6,69,0.00,,CLR,0.00,VWS V14.01,2013-09-09 10:04:00,
2013-09-09 03:10:00,61.9,52.0,29.74,WNW,294,4.0,5.4,70,0.00,,CLR,0.00,VWS V14.01,2013-09-09 10:10:00,
2013-09-09 03:15:00,61.7,52.2,29.74,NW,307,2.2,2.7,71,0.00,,CLR,0.00,VWS V14.01,2013-09-09 10:15:00,
2013-09-09 03:21:00,61.5,52.0,29.74,NNW,343,0.0,3.1,71,0.00,,CLR,0.00,VWS V14.01,2013-09-09 10:21:00,
2013-09-09 03:26:00,61.5,52.0,29.74,NNW,338,3.6,4.0,71,0.00,,CLR,0.00,VWS V14.01,2013-09-09 10:26:00,
2013-09-09 03:32:00,61.5,52.4,29.74,WNW,292,2.7,4.9,72,0.00,,CLR,0.00,VWS V14.01,2013-09-09 10:32:00,
2013-09-09 03:38:00,61.3,52.6,29.74,NNW,332,2.7,4.0,73,0.00,,BKN007,0.00,VWS V14.01,2013-09-09 10:38:00,
2013-09-09 03:43:00,61.3,52.6,29.74,SW,231,0.0,0.0,73,0.00,,BKN007,0.00,VWS V14.01,2013-09-09 10:43:00,
2013-09-09 03:49:00,61.1,52.4,29.71,SW,231,0.0,0.0,73,0.00,,BKN007,0.00,VWS V14.01,2013-09-09 10:49:00,
2013-09-09 03:55:00,61.1,52.4,29.71,SW,231,0.0,0.0,73,0.00,,BKN007,0.00,VWS V14.01,2013-09-09 10:55:00,
2013-09-09 04:00:00,61.1,52.8,29.71,SW,231,0.0,0.0,74,0.00,,BKN007,0.00,VWS V14.01,2013-09-09 11:00:00,
2013-09-09 04:06:00,61.1,52.8,29.71,SW,231,0.0,0.0,74,0.00,,BKN007,0.00,VWS V14.01,2013-09-09 11:06:00,
2013-09-09 04:11:00,61.1,52.8,29.71,SW,231,0.0,0.0,74,0.00,,BKN007,0.00,VWS V14.01,2013-09-09 11:11:00,
2013-09-09 04:17:00,61.1,52.8,29.71,SW,231,0.0,0.0,74,0.00,,BKN007,0.00,VWS V14.01,2013-09-09 11:17:00,
2013-09-09 04:22:00,61.1,53.2,29.71,NE,43,3.6,3.6,75,0.00,,BKN007,0.00,VWS V14.01,2013-09-09 11:22:00,
2013-09-09 04:28:00,61.3,53.3,29.71,NE,40,0.0,0.0,75,0.00,,BKN007,0.00,VWS V14.01,2013-09-09 11:28:00,
2013-09-09 04:33:00,61.3,53.3,29.71,North,353,6.3,6.3,75,0.00,,BKN007,0.00,VWS V14.01,2013-09-09 11:33:00,
2013-09-09 04:38:00,61.5,53.5,29.71,NNW,339,2.7,3.1,75,0.00,,OVC007,0.00,VWS V14.01,2013-09-09 11:38:00,
2013-09-09 04:44:00,61.5,53.5,29.71,NW,319,3.1,3.6,75,0.00,,OVC007,0.00,VWS V14.01,2013-09-09 11:44:00,
2013-09-09 04:49:00,61.3,53.3,29.74,North,353,0.0,3.6,75,0.00,,OVC007,0.00,VWS V14.01,2013-09-09 11:49:00,
2013-09-09 04:55:00,61.5,53.9,29.74,NW,313,3.1,3.1,76,0.00,,OVC007,0.00,VWS V14.01,2013-09-09 11:55:00,
2013-09-09 05:00:00,61.5,53.9,29.74,NNE,14,4.0,4.0,76,0.00,,OVC007,0.00,VWS V14.01,2013-09-09 12:00:00,
2013-09-09 05:05:00,61.5,53.9,29.74,North,357,2.7,3.1,76,0.00,,OVC007,0.00,VWS V14.01,2013-09-09 12:05:00,
2013-09-09 05:11:00,61.5,53.9,29.74,NNW,339,4.0,4.0,76,0.00,,OVC007,0.00,VWS V14.01,2013-09-09 12:11:00,
2013-09-09 05:17:00,61.5,53.9,29.74,NW,306,2.7,4.9,76,0.00,,OVC007,0.00,VWS V14.01,2013-09-09 12:17:00,
2013-09-09 05:23:00,61.5,53.9,29.74,NNW,336,0.0,3.1,76,0.00,,OVC007,0.00,VWS V14.01,2013-09-09 12:23:00,
2013-09-09 05:28:00,61.5,53.9,29.74,NW,322,0.0,2.2,76,0.00,,OVC007,0.00,VWS V14.01,2013-09-09 12:28:00,
2013-09-09 05:33:00,61.5,54.2,29.74,WNW,299,2.7,2.7,77,0.00,,OVC007,0.00,VWS V14.01,2013-09-09 12:33:00,
2013-09-09 05:38:00,61.5,54.2,29.74,WNW,303,0.0,0.0,77,0.00,,OVC007,0.00,VWS V14.01,2013-09-09 12:38:00,
2013-09-09 05:44:00,61.5,53.9,29.74,West,270,0.0,0.0,76,0.00,,OVC007,0.00,VWS V14.01,2013-09-09 12:44:00,
2013-09-09 05:49:00,61.7,54.0,29.74,NNW,336,0.0,0.0,76,0.00,,OVC007,0.00,VWS V14.01,2013-09-09 12:49:00,
2013-09-09 05:54:00,61.7,54.0,29.74,West,268,0.0,0.0,76,0.00,,SCT007,0.00,VWS V14.01,2013-09-09 12:54:00,
2013-09-09 05:59:00,61.9,54.2,29.74,NW,315,0.0,0.0,76,0.00,,SCT007,0.00,VWS V14.01,2013-09-09 12:59:00,
2013-09-09 06:05:00,61.9,54.2,29.74,WNW,303,2.7,2.7,76,0.00,,SCT007,0.00,VWS V14.01,2013-09-09 13:05:00,
2013-09-09 06:10:00,61.9,54.2,29.74,WNW,289,0.0,2.2,76,0.00,,SCT007,0.00,VWS V14.01,2013-09-09 13:10:00,
2013-09-09 06:16:00,61.9,53.9,29.74,West,264,0.0,2.7,75,0.00,,SCT007,0.00,VWS V14.01,2013-09-09 13:16:00,
2013-09-09 06:21:00,62.0,54.0,29.74,West,275,0.0,0.0,75,0.00,,SCT007,0.00,VWS V14.01,2013-09-09 13:21:00,
2013-09-09 06:27:00,62.0,54.0,29.74,West,275,0.0,0.0,75,0.00,,SCT007,0.00,VWS V14.01,2013-09-09 13:27:00,
2013-09-09 06:33:00,61.9,53.9,29.74,North,353,0.0,0.0,75,0.00,,SCT007,0.00,VWS V14.01,2013-09-09 13:33:00,
2013-09-09 06:38:00,61.9,53.9,29.74,North,353,0.0,0.0,75,0.00,,CLR,0.00,VWS V14.01,2013-09-09 13:38:00,
2013-09-09 06:43:00,61.9,53.9,29.74,NNE,15,0.0,0.0,75,0.00,,CLR,0.00,VWS V14.01,2013-09-09 13:43:00,
2013-09-09 06:48:00,61.9,53.9,29.74,NNE,22,0.0,0.0,75,0.00,,CLR,0.00,VWS V14.01,2013-09-09 13:48:00,
2013-09-09 06:54:00,61.9,53.9,29.74,North,353,0.0,0.0,75,0.00,,CLR,0.00,VWS V14.01,2013-09-09 13:54:00,
2013-09-09 06:59:00,61.9,53.9,29.74,North,353,0.0,0.0,75,0.00,,CLR,0.00,VWS V14.01,2013-09-09 13:59:00,
2013-09-09 07:05:00,62.0,54.0,29.74,NNW,348,0.0,0.0,75,0.00,,CLR,0.00,VWS V14.01,2013-09-09 14:05:00,
2013-09-09 07:11:00,62.0,54.0,29.74,NNW,348,0.0,0.0,75,0.00,,CLR,0.00,VWS V14.01,2013-09-09 14:11:00,
2013-09-09 07:16:00,62.2,54.2,29.74,NNW,348,0.0,0.0,75,0.00,,CLR,0.00,VWS V14.01,2013-09-09 14:16:00,
2013-09-09 07:21:00,62.2,54.2,29.74,NNW,348,0.0,0.0,75,0.00,,CLR,0.00,VWS V14.01,2013-09-09 14:21:00,
2013-09-09 07:26:00,62.4,54.0,29.74,NNW,338,0.0,0.0,74,0.00,,CLR,0.00,VWS V14.01,2013-09-09 14:26:00,
2013-09-09 07:32:00,62.6,54.2,29.74,NNW,337,0.0,0.0,74,0.00,,CLR,0.00,VWS V14.01,2013-09-09 14:32:00,
2013-09-09 07:37:00,62.8,54.4,29.74,North,349,0.0,0.0,74,0.00,,CLR,0.00,VWS V14.01,2013-09-09 14:37:00,
2013-09-09 07:43:00,62.9,54.5,29.74,NW,315,2.2,2.7,74,0.00,,CLR,0.00,VWS V14.01,2013-09-09 14:43:00,
2013-09-09 07:48:00,63.1,54.3,29.74,NW,313,0.0,2.7,73,0.00,,CLR,0.00,VWS V14.01,2013-09-09 14:48:00,
2013-09-09 07:53:00,63.3,54.5,29.74,WSW,248,0.0,0.0,73,0.00,,CLR,0.00,VWS V14.01,2013-09-09 14:53:00,
2013-09-09 07:58:00,63.7,54.5,29.74,WNW,292,0.0,0.0,72,0.00,,CLR,0.00,VWS V14.01,2013-09-09 14:58:00,
2013-09-09 08:04:00,64.0,54.4,29.74,NW,314,0.0,0.0,71,0.00,,CLR,0.00,VWS V14.01,2013-09-09 15:04:00,
2013-09-09 08:09:00,64.2,54.2,29.74,West,260,2.7,4.0,70,0.00,,CLR,0.00,VWS V14.01,2013-09-09 15:09:00,
2013-09-09 08:14:00,64.4,54.0,29.74,NW,320,0.0,2.7,69,0.00,,CLR,0.00,VWS V14.01,2013-09-09 15:14:00,
2013-09-09 08:19:00,64.7,54.0,29.77,WNW,289,0.0,3.6,68,0.00,,CLR,0.00,VWS V14.01,2013-09-09 15:19:00,
2013-09-09 08:25:00,65.3,53.6,29.77,North,5,0.0,2.7,66,0.00,,CLR,0.00,VWS V14.01,2013-09-09 15:25:00,
2013-09-09 08:30:00,65.5,52.5,29.77,NNW,335,2.2,3.6,63,0.00,,CLR,0.00,VWS V14.01,2013-09-09 15:30:00,
2013-09-09 08:36:00,66.0,52.6,29.77,NW,321,0.0,3.6,62,0.00,,CLR,0.00,VWS V14.01,2013-09-09 15:36:00,
2013-09-09 08:42:00,66.4,53.0,29.77,North,357,0.0,4.0,62,0.00,,CLR,0.00,VWS V14.01,2013-09-09 15:42:00,
2013-09-09 08:47:00,66.7,51.5,29.77,NW,316,3.6,3.6,58,0.00,,CLR,0.00,VWS V14.01,2013-09-09 15:47:00,
2013-09-09 08:53:00,67.4,51.7,29.77,SSW,202,0.0,0.0,57,0.00,,CLR,0.00,VWS V14.01,2013-09-09 15:53:00,
2013-09-09 08:58:00,67.8,50.1,29.77,SW,231,2.2,2.7,53,0.00,,CLR,0.00,VWS V14.01,2013-09-09 15:58:00,
2013-09-09 09:03:00,68.2,49.9,29.77,SW,231,0.0,0.0,52,0.00,,CLR,0.00,VWS V14.01,2013-09-09 16:03:00,
2013-09-09 09:08:00,68.5,47.5,29.77,SSE,155,0.0,3.1,47,0.00,,CLR,0.00,VWS V14.01,2013-09-09 16:08:00,
2013-09-09 09:14:00,69.1,47.4,29.77,SE,126,2.7,2.7,46,0.00,,CLR,0.00,VWS V14.01,2013-09-09 16:14:00,
2013-09-09 09:19:00,69.8,47.5,29.77,SSW,210,2.7,3.1,45,0.00,,CLR,0.00,VWS V14.01,2013-09-09 16:19:00,
2013-09-09 09:25:00,70.3,46.2,29.77,WSW,253,3.1,4.0,42,0.00,,CLR,0.00,VWS V14.01,2013-09-09 16:25:00,
2013-09-09 09:31:00,70.9,46.7,29.77,NW,317,2.2,4.0,42,0.00,,CLR,0.00,VWS V14.01,2013-09-09 16:31:00,
2013-09-09 09:37:00,71.6,46.7,29.77,SSW,203,0.0,0.0,41,0.00,,CLR,0.00,VWS V14.01,2013-09-09 16:37:00,
2013-09-09 09:43:00,72.1,45.1,29.77,SSW,192,2.7,4.0,38,0.00,,CLR,0.00,VWS V14.01,2013-09-09 16:43:00,
2013-09-09 09:49:00,72.7,45.6,29.77,SW,236,0.0,2.2,38,0.00,,CLR,0.00,VWS V14.01,2013-09-09 16:49:00,
2013-09-09 09:54:00,73.2,44.7,29.77,WNW,291,2.7,2.7,36,0.00,,CLR,0.00,VWS V14.01,2013-09-09 16:54:00,
2013-09-09 10:00:00,74.1,44.0,29.77,WNW,282,0.0,0.0,34,0.00,,CLR,0.00,VWS V14.01,2013-09-09 17:00:00,
2013-09-09 10:05:00,73.9,43.0,29.77,WSW,256,3.6,4.0,33,0.00,,CLR,0.00,VWS V14.01,2013-09-09 17:05:00,
2013-09-09 10:11:00,74.3,43.3,29.77,WSW,243,2.7,4.0,33,0.00,,CLR,0.00,VWS V14.01,2013-09-09 17:11:00,
2013-09-09 10:17:00,75.4,43.5,29.77,West,264,0.0,0.0,32,0.00,,CLR,0.00,VWS V14.01,2013-09-09 17:17:00,
2013-09-09 10:22:00,75.2,42.5,29.77,West,278,3.6,5.4,31,0.00,,CLR,0.00,VWS V14.01,2013-09-09 17:22:00,
2013-09-09 10:28:00,76.3,43.4,29.77,WSW,245,2.7,3.6,31,0.00,,CLR,0.00,VWS V14.01,2013-09-09 17:28:00,
2013-09-09 10:34:00,77.3,43.5,29.77,SSW,211,0.0,0.0,30,0.00,,CLR,0.00,VWS V14.01,2013-09-09 17:34:00,
2013-09-09 10:39:00,78.2,44.3,29.77,South,179,0.0,3.1,30,0.00,,CLR,0.00,VWS V14.01,2013-09-09 17:39:00,
2013-09-09 10:45:00,79.3,41.5,29.77,NW,307,3.6,4.9,26,0.00,,CLR,0.00,VWS V14.01,2013-09-09 17:45:00,
2013-09-09 10:50:00,80.4,42.4,29.77,NNE,33,3.1,3.6,26,0.00,,CLR,0.00,VWS V14.01,2013-09-09 17:50:00,
2013-09-09 10:56:00,81.1,41.0,29.77,South,186,0.0,0.0,24,0.00,,CLR,0.00,VWS V14.01,2013-09-09 17:56:00,
2013-09-09 11:02:00,80.8,39.5,29.74,SE,133,5.8,5.8,23,0.00,,CLR,0.00,VWS V14.01,2013-09-09 18:02:00,
2013-09-09 11:07:00,80.0,41.1,29.74,SE,140,2.7,3.6,25,0.00,,CLR,0.00,VWS V14.01,2013-09-09 18:07:00,
2013-09-09 11:13:00,81.1,39.8,29.74,SSW,196,3.1,3.6,23,0.00,,CLR,0.00,VWS V14.01,2013-09-09 18:13:00,
2013-09-09 11:18:00,80.8,39.5,29.74,SSW,197,4.0,4.0,23,0.00,,CLR,0.00,VWS V14.01,2013-09-09 18:18:00,
2013-09-09 11:24:00,79.1,39.3,29.74,East,95,4.5,7.2,24,0.00,,CLR,0.00,VWS V14.01,2013-09-09 18:24:00,
2013-09-09 11:29:00,79.1,41.3,29.74,SE,124,5.8,6.3,26,0.00,,CLR,0.00,VWS V14.01,2013-09-09 18:29:00,
2013-09-09 11:35:00,79.1,42.3,29.74,SE,125,3.6,5.8,27,0.00,,CLR,0.00,VWS V14.01,2013-09-09 18:35:00,
2013-09-09 11:40:00,79.9,39.9,29.74,South,179,5.4,5.4,24,0.00,,CLR,0.00,VWS V14.01,2013-09-09 18:40:00,
2013-09-09 11:45:00,78.8,39.0,29.74,SE,139,5.8,8.7,24,0.00,,CLR,0.00,VWS V14.01,2013-09-09 18:45:00,
2013-09-09 11:51:00,79.5,39.6,29.74,South,184,4.5,7.6,24,0.00,,CLR,0.00,VWS V14.01,2013-09-09 18:51:00,
2013-09-09 11:56:00,79.3,39.4,29.74,South,176,4.0,5.8,24,0.00,,CLR,0.00,VWS V14.01,2013-09-09 18:56:00,
2013-09-09 12:01:00,79.5,39.6,29.74,SSE,148,4.0,5.4,24,0.00,,CLR,0.00,VWS V14.01,2013-09-09 19:01:00,
2013-09-09 12:06:00,79.7,39.7,29.74,South,174,5.8,5.8,24,0.00,,CLR,0.00,VWS V14.01,2013-09-09 19:06:00,
2013-09-09 12:12:00,80.2,39.1,29.74,SSW,204,6.3,6.7,23,0.00,,CLR,0.00,VWS V14.01,2013-09-09 19:12:00,
2013-09-09 12:17:00,79.9,39.9,29.74,South,174,4.0,6.3,24,0.00,,CLR,0.00,VWS V14.01,2013-09-09 19:17:00,
2013-09-09 12:23:00,79.7,39.7,29.74,South,182,3.6,5.4,24,0.00,,CLR,0.00,VWS V14.01,2013-09-09 19:23:00,
2013-09-09 12:28:00,79.9,38.8,29.74,SSW,201,3.6,7.2,23,0.00,,CLR,0.00,VWS V14.01,2013-09-09 19:28:00,
2013-09-09 12:34:00,79.3,38.3,29.74,SSW,195,5.8,6.3,23,0.00,,CLR,0.00,VWS V14.01,2013-09-09 19:34:00,
2013-09-09 12:40:00,79.3,39.4,29.74,East,89,8.1,8.1,24,0.00,,CLR,0.00,VWS V14.01,2013-09-09 19:40:00,
2013-09-09 12:45:00,79.5,39.6,29.74,SSE,167,5.8,7.2,24,0.00,,CLR,0.00,VWS V14.01,2013-09-09 19:45:00,
2013-09-09 12:51:00,80.0,39.0,29.74,SSW,196,3.1,6.3,23,0.00,,CLR,0.00,VWS V14.01,2013-09-09 19:51:00,
2013-09-09 12:56:00,80.4,36.9,29.74,SE,136,5.4,6.3,21,0.00,,CLR,0.00,VWS V14.01,2013-09-09 19:56:00,
2013-09-09 13:02:00,80.6,37.1,29.74,SSW,193,6.3,6.3,21,0.00,,CLR,0.00,VWS V14.01,2013-09-09 20:02:00,
2013-09-09 13:08:00,80.0,37.8,29.74,South,191,2.7,5.8,22,0.00,,CLR,0.00,VWS V14.01,2013-09-09 20:08:00,
2013-09-09 13:13:00,79.3,36.0,29.74,ESE,120,5.8,6.3,21,0.00,,CLR,0.00,VWS V14.01,2013-09-09 20:13:00,
2013-09-09 13:18:00,80.4,36.9,29.74,SE,137,7.6,7.6,21,0.00,,CLR,0.00,VWS V14.01,2013-09-09 20:18:00,
2013-09-09 13:23:00,80.2,36.8,29.74,SE,134,4.0,8.1,21,0.00,,CLR,0.00,VWS V14.01,2013-09-09 20:23:00,
2013-09-09 13:28:00,81.1,36.3,29.74,SE,136,4.0,5.4,20,0.00,,CLR,0.00,VWS V14.01,2013-09-09 20:28:00,
2013-09-09 13:34:00,79.3,36.0,29.71,East,98,5.8,10.1,21,0.00,,CLR,0.00,VWS V14.01,2013-09-09 20:34:00,
2013-09-09 13:39:00,79.7,36.3,29.71,SE,145,8.3,11.0,21,0.00,,CLR,0.00,VWS V14.01,2013-09-09 20:39:00,
2013-09-09 13:44:00,79.1,35.9,29.71,SE,138,7.6,11.0,21,0.00,,CLR,0.00,VWS V14.01,2013-09-09 20:44:00,
2013-09-09 13:50:00,80.8,36.0,29.71,SE,143,5.4,5.4,20,0.00,,CLR,0.00,VWS V14.01,2013-09-09 20:50:00,
2013-09-09 13:55:00,80.9,34.8,29.71,SSE,153,4.0,7.6,19,0.00,,CLR,0.00,VWS V14.01,2013-09-09 20:55:00,
2013-09-09 14:00:00,81.5,35.3,29.71,South,178,4.9,4.9,19,0.00,,CLR,0.00,VWS V14.01,2013-09-09 21:00:00,
2013-09-09 14:05:00,80.4,34.4,29.71,SE,145,7.6,10.1,19,0.00,,CLR,0.00,VWS V14.01,2013-09-09 21:05:00,
2013-09-09 14:11:00,81.3,36.4,29.71,SE,138,3.1,4.0,20,0.00,,CLR,0.00,VWS V14.01,2013-09-09 21:11:00,
2013-09-09 14:16:00,81.7,35.4,29.71,SE,127,5.8,8.3,19,0.00,,CLR,0.00,VWS V14.01,2013-09-09 21:16:00,
2013-09-09 14:22:00,81.3,36.4,29.71,South,190,4.0,8.1,20,0.00,,CLR,0.00,VWS V14.01,2013-09-09 21:22:00,
2013-09-09 14:27:00,82.7,36.3,29.71,ESE,119,3.1,5.8,19,0.00,,CLR,0.00,VWS V14.01,2013-09-09 21:27:00,
2013-09-09 14:32:00,82.4,36.0,29.71,SSE,150,4.0,5.8,19,0.00,,CLR,0.00,VWS V14.01,2013-09-09 21:32:00,
2013-09-09 14:37:00,82.7,36.3,29.71,SSW,194,5.4,6.7,19,0.00,,CLR,0.00,VWS V14.01,2013-09-09 21:37:00,
2013-09-09 14:43:00,82.4,36.0,29.71,SSE,158,4.9,5.8,19,0.00,,CLR,0.00,VWS V14.01,2013-09-09 21:43:00,
2013-09-09 14:48:00,82.9,36.5,29.71,SE,131,7.6,7.6,19,0.00,,CLR,0.00,VWS V14.01,2013-09-09 21:48:00,
2013-09-09 14:54:00,80.9,34.8,29.71,SE,124,3.6,5.8,19,0.00,,CLR,0.00,VWS V14.01,2013-09-09 21:54:00,
2013-09-09 15:00:00,79.5,36.2,29.71,South,171,4.0,7.6,21,0.00,,CLR,0.00,VWS V14.01,2013-09-09 22:00:00,
2013-09-09 15:05:00,80.9,36.1,29.71,SW,230,5.8,6.3,20,0.00,,CLR,0.00,VWS V14.01,2013-09-09 22:05:00,
2013-09-09 15:11:00,82.0,37.0,29.71,SSW,209,3.1,4.0,20,0.00,,CLR,0.00,VWS V14.01,2013-09-09 22:11:00,
2013-09-09 15:16:00,81.1,36.3,29.68,West,279,5.8,8.3,20,0.00,,CLR,0.00,VWS V14.01,2013-09-09 22:16:00,
2013-09-09 15:22:00,78.1,37.3,29.68,WNW,285,6.3,7.6,23,0.00,,CLR,0.00,VWS V14.01,2013-09-09 22:22:00,
2013-09-09 15:27:00,78.2,37.4,29.68,West,273,7.2,7.2,23,0.00,,CLR,0.00,VWS V14.01,2013-09-09 22:27:00,
2013-09-09 15:33:00,78.8,36.8,29.68,WSW,258,4.0,5.8,22,0.00,,CLR,0.00,VWS V14.01,2013-09-09 22:33:00,
2013-09-09 15:39:00,79.0,36.9,29.68,SSW,203,4.0,5.8,22,0.00,,CLR,0.00,VWS V14.01,2013-09-09 22:39:00,
2013-09-09 15:44:00,80.0,37.8,29.68,SSW,203,5.4,5.8,22,0.00,,CLR,0.00,VWS V14.01,2013-09-09 22:44:00,
2013-09-09 15:50:00,79.9,37.7,29.68,West,280,3.6,7.6,22,0.00,,CLR,0.00,VWS V14.01,2013-09-09 22:50:00,
2013-09-09 15:55:00,79.7,37.5,29.68,NW,304,6.3,6.3,22,0.00,,CLR,0.00,VWS V14.01,2013-09-09 22:55:00,
2013-09-09 16:00:00,77.5,36.8,29.68,WSW,252,4.0,8.3,23,0.00,,CLR,0.00,VWS V14.01,2013-09-09 23:00:00,
2013-09-09 16:05:00,78.6,36.6,29.68,West,262,4.0,6.3,22,0.00,,CLR,0.00,VWS V14.01,2013-09-09 23:05:00,
2013-09-09 16:11:00,77.9,37.1,29.68,NW,324,6.3,7.6,23,0.00,,CLR,0.00,VWS V14.01,2013-09-09 23:11:00,
2013-09-09 16:17:00,76.8,37.3,29.68,West,274,3.6,7.6,24,0.00,,CLR,0.00,VWS V14.01,2013-09-09 23:17:00,
2013-09-09 16:22:00,76.3,36.9,29.68,WSW,258,5.8,8.3,24,0.00,,CLR,0.00,VWS V14.01,2013-09-09 23:22:00,
2013-09-09 16:28:00,75.7,37.4,29.68,West,281,5.4,9.2,25,0.00,,CLR,0.00,VWS V14.01,2013-09-09 23:28:00,
2013-09-09 16:33:00,77.0,38.5,29.68,WNW,297,6.3,6.3,25,0.00,,CLR,0.00,VWS V14.01,2013-09-09 23:33:00,
2013-09-09 16:39:00,75.4,38.1,29.68,West,267,8.3,8.3,26,0.00,,CLR,0.00,VWS V14.01,2013-09-09 23:39:00,
2013-09-09 16:44:00,76.3,37.9,29.68,WNW,287,3.1,8.1,25,0.00,,CLR,0.00,VWS V14.01,2013-09-09 23:44:00,
2013-09-09 16:50:00,75.2,38.0,29.68,WSW,246,7.6,7.6,26,0.00,,CLR,0.00,VWS V14.01,2013-09-09 23:50:00,
2013-09-09 16:56:00,74.6,40.3,29.68,WSW,255,5.8,6.3,29,0.00,,CLR,0.00,VWS V14.01,2013-09-09 23:56:00,
2013-09-09 17:01:00,74.5,40.2,29.68,SW,230,6.7,8.7,29,0.00,,CLR,0.00,VWS V14.01,2013-09-10 00:01:00,
2013-09-09 17:07:00,75.4,39.1,29.68,West,266,4.9,8.3,27,0.00,,CLR,0.00,VWS V14.01,2013-09-10 00:07:00,
2013-09-09 17:12:00,74.3,40.0,29.68,WNW,299,7.6,8.7,29,0.00,,CLR,0.00,VWS V14.01,2013-09-10 00:12:00,
2013-09-09 17:18:00,74.5,41.9,29.68,NNW,328,4.0,6.3,31,0.00,,CLR,0.00,VWS V14.01,2013-09-10 00:18:00,
2013-09-09 17:23:00,73.6,41.1,29.68,WNW,299,5.4,7.6,31,0.00,,CLR,0.00,VWS V14.01,2013-09-10 00:23:00,
2013-09-09 17:28:00,73.6,41.1,29.68,WNW,296,6.3,8.3,31,0.00,,CLR,0.00,VWS V14.01,2013-09-10 00:28:00,
2013-09-09 17:34:00,72.8,41.3,29.68,WSW,257,4.0,8.1,32,0.00,,CLR,0.00,VWS V14.01,2013-09-10 00:34:00,
2013-09-09 17:39:00,71.4,40.0,29.68,NW,311,8.1,8.3,32,0.00,,CLR,0.00,VWS V14.01,2013-09-10 00:39:00,
2013-09-09 17:45:00,70.9,41.1,29.68,WNW,301,8.7,8.7,34,0.00,,CLR,0.00,VWS V14.01,2013-09-10 00:45:00,
2013-09-09 17:50:00,70.5,40.8,29.68,West,278,5.8,7.6,34,0.00,,CLR,0.00,VWS V14.01,2013-09-10 00:50:00,
2013-09-09 17:56:00,69.4,41.3,29.68,West,270,5.8,8.7,36,0.00,,CLR,0.00,VWS V14.01,2013-09-10 00:56:00,
2013-09-09 18:01:00,69.2,41.2,29.68,West,270,6.3,6.3,36,0.00,,CLR,0.00,VWS V14.01,2013-09-10 01:01:00,
2013-09-09 18:06:00,69.6,42.2,29.68,West,280,8.7,8.7,37,0.00,,CLR,0.00,VWS V14.01,2013-09-10 01:06:00,
2013-09-09 18:12:00,69.8,42.4,29.68,NNW,331,6.3,7.2,37,0.00,,CLR,0.00,VWS V14.01,2013-09-10 01:12:00,
2013-09-09 18:18:00,68.5,41.2,29.71,NW,318,7.6,8.1,37,0.00,,CLR,0.00,VWS V14.01,2013-09-10 01:18:00,
2013-09-09 18:24:00,69.2,43.2,29.71,WNW,289,4.5,4.5,39,0.00,,CLR,0.00,VWS V14.01,2013-09-10 01:24:00,
2013-09-09 18:29:00,69.2,43.2,29.71,NW,324,6.3,7.2,39,0.00,,CLR,0.00,VWS V14.01,2013-09-10 01:29:00,
2013-09-09 18:34:00,68.9,43.6,29.71,North,353,5.8,6.3,40,0.00,,CLR,0.00,VWS V14.01,2013-09-10 01:34:00,
2013-09-09 18:40:00,68.5,43.9,29.71,NNW,332,3.1,4.9,41,0.00,,CLR,0.00,VWS V14.01,2013-09-10 01:40:00,
2013-09-09 18:45:00,68.3,43.8,29.71,WNW,300,4.0,5.4,41,0.00,,CLR,0.00,VWS V14.01,2013-09-10 01:45:00,
2013-09-09 18:50:00,68.0,44.1,29.71,NW,308,6.3,6.7,42,0.00,,CLR,0.00,VWS V14.01,2013-09-10 01:50:00,
2013-09-09 18:55:00,67.8,43.9,29.71,NW,320,4.0,4.0,42,0.00,,CLR,0.00,VWS V14.01,2013-09-10 01:55:00,
2013-09-09 19:01:00,67.6,45.0,29.71,West,272,4.0,4.0,44,0.00,,CLR,0.00,VWS V14.01,2013-09-10 02:01:00,
2013-09-09 19:06:00,67.3,45.2,29.71,NW,319,4.0,5.8,45,0.00,,CLR,0.00,VWS V14.01,2013-09-10 02:06:00,
2013-09-09 19:12:00,66.7,45.3,29.71,West,273,3.6,4.0,46,0.00,,CLR,0.00,VWS V14.01,2013-09-10 02:12:00,
2013-09-09 19:17:00,66.5,45.7,29.71,NW,309,3.1,4.0,47,0.00,,CLR,0.00,VWS V14.01,2013-09-10 02:17:00,
2013-09-09 19:23:00,66.5,45.7,29.71,WNW,300,3.1,3.6,47,0.00,,CLR,0.00,VWS V14.01,2013-09-10 02:23:00,
2013-09-09 19:28:00,66.5,46.3,29.71,NW,305,3.6,4.9,48,0.00,,CLR,0.00,VWS V14.01,2013-09-10 02:28:00,
2013-09-09 19:34:00,66.4,46.6,29.71,NW,317,0.0,4.0,49,0.00,,CLR,0.00,VWS V14.01,2013-09-10 02:34:00,
2013-09-09 19:40:00,66.2,46.5,29.71,West,260,5.8,5.8,49,0.00,,CLR,0.00,VWS V14.01,2013-09-10 02:40:00,
2013-09-09 19:45:00,65.8,46.7,29.71,NNW,343,3.1,4.0,50,0.00,,CLR,0.00,VWS V14.01,2013-09-10 02:45:00,
2013-09-09 19:51:00,65.6,46.5,29.71,North,350,6.3,6.3,50,0.00,,CLR,0.00,VWS V14.01,2013-09-10 02:51:00,
2013-09-09 19:57:00,65.5,46.3,29.71,NNW,342,5.4,5.8,50,0.00,,CLR,0.00,VWS V14.01,2013-09-10 02:57:00,
2013-09-09 20:02:00,65.3,46.7,29.74,NNW,335,4.0,4.0,51,0.00,,CLR,0.00,VWS V14.01,2013-09-10 03:02:00,
2013-09-09 20:08:00,65.1,46.5,29.74,NW,320,3.6,3.6,51,0.00,,CLR,0.00,VWS V14.01,2013-09-10 03:08:00,
2013-09-09 20:13:00,64.7,46.2,29.74,NW,305,4.9,4.9,51,0.00,,CLR,0.00,VWS V14.01,2013-09-10 03:13:00,
2013-09-09 20:19:00,64.6,46.6,29.74,WNW,292,5.8,6.3,52,0.00,,CLR,0.00,VWS V14.01,2013-09-10 03:19:00,
2013-09-09 20:24:00,64.6,46.6,29.74,NW,317,3.1,4.5,52,0.00,,CLR,0.00,VWS V14.01,2013-09-10 03:24:00,
2013-09-09 20:29:00,64.4,46.9,29.74,NW,315,3.1,4.9,53,0.00,,CLR,0.00,VWS V14.01,2013-09-10 03:29:00,
2013-09-09 20:34:00,64.4,46.9,29.74,NNW,341,3.6,4.9,53,0.00,,CLR,0.00,VWS V14.01,2013-09-10 03:34:00,
2013-09-09 20:39:00,64.4,46.9,29.74,WNW,300,3.1,3.1,53,0.00,,CLR,0.00,VWS V14.01,2013-09-10 03:39:00,
2013-09-09 20:44:00,64.2,46.7,29.74,NW,306,4.0,5.4,53,0.00,,CLR,0.00,VWS V14.01,2013-09-10 03:44:00,
2013-09-09 20:50:00,64.0,47.5,29.74,WNW,291,5.4,5.8,55,0.00,,CLR,0.00,VWS V14.01,2013-09-10 03:50:00,
2013-09-09 20:55:00,64.0,47.5,29.74,WSW,258,4.0,5.8,55,0.00,,CLR,0.00,VWS V14.01,2013-09-10 03:55:00,
2013-09-09 21:00:00,63.8,47.9,29.74,West,281,4.0,4.0,56,0.00,,CLR,0.00,VWS V14.01,2013-09-10 04:00:00,
2013-09-09 21:01:00,63.8,47.9,29.74,WSW,246,5.4,5.4,56,0.00,,CLR,0.00,VWS V14.01,2013-09-10 04:01:00,
2013-09-09 21:02:00,63.8,47.9,29.74,WNW,302,2.7,5.4,56,0.00,,CLR,0.00,VWS V14.01,2013-09-10 04:02:00,
2013-09-09 21:04:00,63.8,47.9,29.74,West,268,3.1,3.6,56,0.00,,CLR,0.00,VWS V14.01,2013-09-10 04:04:00,
2013-09-09 21:09:00,63.7,48.2,29.74,WNW,288,3.6,5.8,57,0.00,,CLR,0.00,VWS V14.01,2013-09-10 04:09:00,
2013-09-09 21:12:00,63.7,48.2,29.74,WSW,241,3.1,6.3,57,0.00,,CLR,0.00,VWS V14.01,2013-09-10 04:12:00,
2013-09-09 21:17:00,63.7,48.6,29.74,NW,315,3.1,6.3,58,0.00,,CLR,0.00,VWS V14.01,2013-09-10 04:17:00,
2013-09-09 21:23:00,63.7,48.6,29.74,West,268,3.1,5.4,58,0.00,,CLR,0.00,VWS V14.01,2013-09-10 04:23:00,
2013-09-09 21:24:00,63.7,48.6,29.74,WSW,253,4.0,4.0,58,0.00,,CLR,0.00,VWS V14.01,2013-09-10 04:24:00,
2013-09-09 21:29:00,63.5,48.5,29.74,West,266,4.9,6.3,58,0.00,,CLR,0.00,VWS V14.01,2013-09-10 04:29:00,
2013-09-09 21:34:00,63.5,48.9,29.74,NW,304,2.2,4.0,59,0.00,,CLR,0.00,VWS V14.01,2013-09-10 04:34:00,
2013-09-09 21:40:00,63.5,48.9,29.74,NW,319,3.1,3.6,59,0.00,,CLR,0.00,VWS V14.01,2013-09-10 04:40:00,
2013-09-09 21:46:00,63.5,48.9,29.74,West,278,5.8,5.8,59,0.00,,CLR,0.00,VWS V14.01,2013-09-10 04:46:00,
2013-09-09 21:51:00,63.3,49.2,29.74,West,279,4.0,4.0,60,0.00,,CLR,0.00,VWS V14.01,2013-09-10 04:51:00,
2013-09-09 21:57:00,63.1,49.5,29.74,NW,321,4.0,5.4,61,0.00,,CLR,0.00,VWS V14.01,2013-09-10 04:57:00,
2013-09-09 22:02:00,63.1,49.5,29.74,WNW,302,3.6,4.0,61,0.00,,CLR,0.00,VWS V14.01,2013-09-10 05:02:00,
2013-09-09 22:08:00,63.1,49.5,29.74,NW,309,4.0,6.3,61,0.00,,CLR,0.00,VWS V14.01,2013-09-10 05:08:00,
2013-09-09 22:13:00,62.9,49.3,29.74,WSW,249,2.7,2.7,61,0.00,,CLR,0.00,VWS V14.01,2013-09-10 05:13:00,
2013-09-09 22:19:00,62.9,49.7,29.74,NW,311,2.7,2.7,62,0.00,,CLR,0.00,VWS V14.01,2013-09-10 05:19:00,
2013-09-09 22:25:00,62.8,49.6,29.74,West,278,0.0,2.2,62,0.00,,CLR,0.00,VWS V14.01,2013-09-10 05:25:00,
2013-09-09 22:30:00,62.8,49.6,29.77,West,278,0.0,0.0,62,0.00,,CLR,0.00,VWS V14.01,2013-09-10 05:30:00,
2013-09-09 22:36:00,62.8,49.6,29.77,West,278,2.2,2.2,62,0.00,,CLR,0.00,VWS V14.01,2013-09-10 05:36:00,
2013-09-09 22:41:00,62.6,49.8,29.77,West,278,0.0,2.2,63,0.00,,CLR,0.00,VWS V14.01,2013-09-10 05:41:00,
2013-09-09 22:47:00,62.6,49.8,29.77,West,278,0.0,0.0,63,0.00,,CLR,0.00,VWS V14.01,2013-09-10 05:47:00,
2013-09-09 22:52:00,62.6,49.8,29.77,West,278,0.0,0.0,63,0.00,,CLR,0.00,VWS V14.01,2013-09-10 05:52:00,
2013-09-09 22:58:00,62.6,49.8,29.77,West,278,0.0,0.0,63,0.00,,CLR,0.00,VWS V14.01,2013-09-10 05:58:00,
2013-09-09 23:03:00,62.4,49.7,29.77,West,278,0.0,0.0,63,0.00,,CLR,0.00,VWS V14.01,2013-09-10 06:03:00,
2013-09-09 23:08:00,62.6,50.2,29.77,West,269,3.1,3.6,64,0.00,,CLR,0.00,VWS V14.01,2013-09-10 06:08:00,
2013-09-09 23:14:00,62.4,50.5,29.77,West,271,0.0,2.7,65,0.00,,CLR,0.00,VWS V14.01,2013-09-10 06:14:00,
2013-09-09 23:19:00,62.4,50.5,29.77,West,260,4.0,5.4,65,0.00,,CLR,0.00,VWS V14.01,2013-09-10 06:19:00,
2013-09-09 23:25:00,62.2,50.7,29.77,WNW,284,2.7,2.7,66,0.00,,CLR,0.00,VWS V14.01,2013-09-10 06:25:00,
2013-09-09 23:30:00,62.2,51.1,29.74,NW,315,2.2,3.6,67,0.00,,CLR,0.00,VWS V14.01,2013-09-10 06:30:00,
2013-09-09 23:36:00,62.0,51.0,29.74,WNW,292,2.7,4.9,67,0.00,,CLR,0.00,VWS V14.01,2013-09-10 06:36:00,
2013-09-09 23:41:00,61.9,50.8,29.74,NW,321,3.1,3.1,67,0.00,,CLR,0.00,VWS V14.01,2013-09-10 06:41:00,
2013-09-09 23:47:00,61.9,50.8,29.77,WNW,287,0.0,0.0,67,0.00,,CLR,0.00,VWS V14.01,2013-09-10 06:47:00,
2013-09-09 23:53:00,61.9,51.2,29.77,NNW,333,2.2,3.6,68,0.00,,CLR,0.00,VWS V14.01,2013-09-10 06:53:00,
2013-09-09 23:58:00,61.7,51.0,29.77,West,278,3.6,3.6,68,0.00,,CLR,0.00,VWS V14.01,2013-09-10 06:58:00,